Location: Prague
(50.0830°N, 14.4670°E)
Time: 13:59:20
(UTC+01:00)

XW-2F - Pass Details

Date: 01 December 2021
Orbit: 494 x 515 km, 97.5° (Epoch: 27 January)

Event Time Altitude Azimuth Distance (km) Brightness Sun altitude
Rises 05:48:10 0° 20° (NNE) 2,654 ? -17.0°
Reaches altitude 10° 05:50:25 10° 30° (NNE) 1,762 ? -16.7°
Maximum altitude 05:53:55 34° 97° (E) 875 ? -16.1°
Drops below altitude 10° 05:57:22 10° 163° (SSE) 1,747 ? -15.6°
Sets 05:59:36 0° 173° (S) 2,627 ? -15.3°
